• In Netherlands
  • List of Countries
  • For 7 days
  • Water Temperature
  • Satellite Maps
  • Weather Map
  • Weather Widgets
  • user-avatar
    Login

    Hourly Weather Durres

    Today, 28 April, Friday

    Time Temperature Precipitation Wind Pressure Humidity
    00:00 +14°C° 0 mm 4 mps 760 mmHg 71%
    01:00 +13°C° 0 mm 4 mps 760 mmHg 71%
    02:00 +13°C° 0 mm 4 mps 760 mmHg 70%
    03:00 +13°C° 0 mm 5 mps 760 mmHg 70%
    04:00 +13°C° 0 mm 5 mps 760 mmHg 69%
    05:00 +15°C° 0 mm 5 mps 760 mmHg 63%
    06:00 +17°C° 0 mm 5 mps 760 mmHg 57%
    07:00 +21°C° 0 mm 5 mps 760 mmHg 48%
    08:00 +23°C° 0 mm 5 mps 760 mmHg 40%
    09:00 +25°C° 0 mm 5 mps 760 mmHg 33%
    10:00 +27°C° 0 mm 6 mps 760 mmHg 25%
    11:00 +27°C° 0 mm 6 mps 759 mmHg 26%
    12:00 +27°C° 0 mm 6 mps 759 mmHg 26%
    13:00 +28°C° 0 mm 7 mps 759 mmHg 26%
    14:00 +27°C° 0 mm 7 mps 759 mmHg 28%
    15:00 +27°C° 0 mm 7 mps 758 mmHg 30%
    16:00 +26°C° 0 mm 7 mps 758 mmHg 32%
    17:00 +23°C° 0.1 mm 7 mps 758 mmHg 38%
    18:00 +20°C° 0.1 mm 7 mps 758 mmHg 45%
    19:00 +17°C° 0.1 mm 6 mps 758 mmHg 52%
    20:00 +16°C° 0.1 mm 6 mps 758 mmHg 52%
    21:00 +16°C° 0.1 mm 6 mps 759 mmHg 51%
    22:00 +16°C° 0.1 mm 6 mps 759 mmHg 51%
    23:00 +16°C° 0.2 mm 6 mps 759 mmHg 50%

    Tomorrow, 29 April, Saturday

    Time Temperature Precipitation Wind Pressure Humidity
    00:00 +16°C° 0.2 mm 5 mps 758 mmHg 50%
    01:00 +16°C° 0.2 mm 5 mps 758 mmHg 50%
    02:00 +16°C° 0.1 mm 5 mps 758 mmHg 49%
    03:00 +16°C° 0.1 mm 5 mps 758 mmHg 47%
    04:00 +17°C° 0.1 mm 4 mps 757 mmHg 46%
    05:00 +18°C° 0.1 mm 4 mps 757 mmHg 45%
    06:00 +19°C° 0.1 mm 3 mps 757 mmHg 45%
    07:00 +21°C° 0.1 mm 3 mps 757 mmHg 44%
    08:00 +21°C° 0 mm 3 mps 757 mmHg 42%
    09:00 +22°C° 0 mm 3 mps 757 mmHg 39%
    10:00 +24°C° 0 mm 2 mps 757 mmHg 37%
    11:00 +25°C° 0.1 mm 3 mps 757 mmHg 36%
    12:00 +25°C° 0.1 mm 3 mps 757 mmHg 36%
    13:00 +26°C° 0.1 mm 3 mps 757 mmHg 35%
    14:00 +25°C° 0.1 mm 3 mps 757 mmHg 40%
    15:00 +23°C° 0.1 mm 4 mps 757 mmHg 44%
    16:00 +22°C° 0.1 mm 5 mps 757 mmHg 49%
    17:00 +20°C° 0 mm 5 mps 757 mmHg 56%
    18:00 +17°C° 0 mm 5 mps 757 mmHg 62%
    19:00 +16°C° 0 mm 5 mps 757 mmHg 69%
    20:00 +17°C° 0 mm 4 mps 757 mmHg 70%
    21:00 +15°C° 0 mm 4 mps 757 mmHg 71%
    22:00 +15°C° 0 mm 4 mps 757 mmHg 72%
    23:00 +15°C° 0 mm 5 mps 757 mmHg 74%

    Day after tomorrow, 30 April, Sunday

    Time Temperature Precipitation Wind Pressure Humidity
    00:00 +15°C° 0 mm 5 mps 757 mmHg 75%
    01:00 +14°C° 0 mm 6 mps 757 mmHg 77%
    02:00 +14°C° 0 mm 6 mps 757 mmHg 79%
    03:00 +14°C° 0 mm 6 mps 757 mmHg 81%
    04:00 +13°C° 0 mm 6 mps 757 mmHg 83%
    05:00 +15°C° 0 mm 6 mps 757 mmHg 78%
    06:00 +16°C° 0 mm 5 mps 757 mmHg 72%
    07:00 +19°C° 0 mm 5 mps 757 mmHg 66%
    08:00 +21°C° 0 mm 5 mps 757 mmHg 61%
    09:00 +22°C° 0 mm 5 mps 757 mmHg 55%
    10:00 +25°C° 0 mm 5 mps 757 mmHg 49%
    11:00 +26°C° 0 mm 6 mps 757 mmHg 48%
    12:00 +26°C° 0 mm 6 mps 757 mmHg 48%
    13:00 +27°C° 0 mm 7 mps 756 mmHg 47%
    14:00 +26°C° 0.1 mm 7 mps 756 mmHg 51%
    15:00 +24°C° 0.1 mm 7 mps 756 mmHg 55%
    16:00 +23°C° 0.1 mm 7 mps 756 mmHg 58%
    17:00 +21°C° 0.1 mm 6 mps 756 mmHg 67%
    18:00 +19°C° 0.1 mm 6 mps 756 mmHg 76%
    19:00 +16°C° 0.1 mm 5 mps 757 mmHg 85%
    20:00 +15°C° 0.1 mm 5 mps 757 mmHg 86%
    21:00 +15°C° 0.1 mm 4 mps 757 mmHg 88%
    22:00 +14°C° 0.1 mm 3 mps 757 mmHg 89%
    23:00 +14°C° 0 mm 4 mps 757 mmHg 89%

    1 May, Monday

    Time Temperature Precipitation Wind Pressure Humidity
    00:00 +14°C° 0 mm 4 mps 757 mmHg 90%
    01:00 +13°C° 0 mm 4 mps 757 mmHg 91%
    02:00 +13°C° 0 mm 4 mps 757 mmHg 91%
    03:00 +13°C° 0 mm 4 mps 757 mmHg 91%
    04:00 +13°C° 0 mm 4 mps 757 mmHg 91%
    05:00 +14°C° 0 mm 3 mps 758 mmHg 86%
    06:00 +17°C° 0 mm 3 mps 758 mmHg 80%
    07:00 +19°C° 0 mm 3 mps 758 mmHg 74%
    08:00 +20°C° 0 mm 3 mps 758 mmHg 69%
    09:00 +22°C° 0 mm 4 mps 758 mmHg 64%
    10:00 +23°C° 0 mm 4 mps 758 mmHg 59%
    11:00 +23°C° 0.1 mm 5 mps 758 mmHg 59%
    12:00 +25°C° 0.1 mm 5 mps 758 mmHg 58%
    13:00 +25°C° 0.1 mm 5 mps 758 mmHg 58%
    14:00 +23°C° 0 mm 5 mps 758 mmHg 60%
    15:00 +23°C° 0 mm 5 mps 758 mmHg 62%
    16:00 +22°C° 0 mm 5 mps 758 mmHg 64%
    17:00 +20°C° 0 mm 4 mps 758 mmHg 73%
    18:00 +18°C° 0 mm 3 mps 758 mmHg 81%
    19:00 +14°C° 0 mm 3 mps 758 mmHg 90%
    20:00 +15°C° 0 mm 2 mps 758 mmHg 91%
    21:00 +14°C° 0 mm 2 mps 759 mmHg 92%
    22:00 +14°C° 0 mm 1 mps 759 mmHg 92%
    23:00 +14°C° 0 mm 1 mps 759 mmHg 92%

    2 May, Tuesday

    Time Temperature Precipitation Wind Pressure Humidity
    00:00 +13°C° 0 mm 1 mps 759 mmHg 92%
    01:00 +13°C° 0 mm 1 mps 759 mmHg 92%
    02:00 +13°C° 0 mm 2 mps 759 mmHg 92%
    03:00 +13°C° 0 mm 2 mps 759 mmHg 92%
    04:00 +12°C° 0 mm 2 mps 759 mmHg 92%
    05:00 +15°C° 0 mm 2 mps 759 mmHg 85%
    06:00 +17°C° 0 mm 2 mps 759 mmHg 78%
    07:00 +20°C° 0 mm 1 mps 759 mmHg 71%
    08:00 +21°C° 0 mm 2 mps 759 mmHg 64%
    09:00 +23°C° 0 mm 2 mps 759 mmHg 58%
    10:00 +25°C° 0 mm 2 mps 759 mmHg 51%
    11:00 +25°C° 0 mm 3 mps 759 mmHg 50%
    12:00 +26°C° 0 mm 4 mps 758 mmHg 50%
    13:00 +26°C° 0 mm 4 mps 758 mmHg 49%
    14:00 +25°C° 0 mm 4 mps 758 mmHg 51%
    15:00 +25°C° 0 mm 3 mps 758 mmHg 52%
    16:00 +24°C° 0 mm 3 mps 758 mmHg 54%
    17:00 +20°C° 0 mm 2 mps 758 mmHg 63%
    18:00 +19°C° 0 mm 1 mps 758 mmHg 72%
    19:00 +15°C° 0 mm 1 mps 758 mmHg 81%
    20:00 +14°C° 0 mm 0 mps 758 mmHg 83%
    21:00 +13°C° 0 mm 0 mps 759 mmHg 85%
    22:00 +13°C° 0 mm 0 mps 759 mmHg 87%
    23:00 +12°C° 0 mm 0 mps 759 mmHg 87%

    3 May, Wednesday

    Time Temperature Precipitation Wind Pressure Humidity
    00:00 +12°C° 0 mm 0 mps 758 mmHg 87%
    01:00 +13°C° 0 mm 1 mps 758 mmHg 87%
    02:00 +12°C° 0 mm 1 mps 758 mmHg 86%
    03:00 +12°C° 0 mm 1 mps 758 mmHg 86%
    04:00 +12°C° 0 mm 1 mps 758 mmHg 85%
    05:00 +14°C° 0 mm 1 mps 758 mmHg 74%
    06:00 +18°C° 0 mm 1 mps 758 mmHg 64%
    07:00 +20°C° 0 mm 2 mps 758 mmHg 53%
    08:00 +21°C° 0 mm 2 mps 758 mmHg 48%
    09:00 +23°C° 0 mm 2 mps 758 mmHg 43%
    10:00 +25°C° 0 mm 2 mps 758 mmHg 38%
    11:00 +25°C° 0 mm 3 mps 758 mmHg 38%
    12:00 +26°C° 0 mm 3 mps 758 mmHg 39%
    13:00 +26°C° 0 mm 4 mps 758 mmHg 39%
    14:00 +25°C° 0 mm 4 mps 757 mmHg 43%
    15:00 +25°C° 0 mm 4 mps 757 mmHg 46%
    16:00 +23°C° 0 mm 4 mps 757 mmHg 50%
    17:00 +21°C° 0 mm 4 mps 757 mmHg 60%
    18:00 +18°C° 0 mm 4 mps 758 mmHg 71%
    19:00 +15°C° 0 mm 4 mps 758 mmHg 81%
    20:00 +14°C° 0 mm 4 mps 758 mmHg 83%
    21:00 +14°C° 0 mm 4 mps 758 mmHg 84%
    22:00 +13°C° 0 mm 4 mps 759 mmHg 85%
    23:00 +13°C° 0 mm 4 mps 759 mmHg 86%
    Show more